TimeCST,TemperatureF,Dew PointF,Humidity,Sea Level PressureIn,VisibilityMPH,Wind Direction,Wind SpeedMPH,Gust SpeedMPH,PrecipitationIn,Events,Conditions,WindDirDegrees,DateUTC
12:26 AM,17.6,14.0,86,30.08,10.0,SSE,6.9,-,N/A,,Overcast,150,2013-01-01 06:26:00
12:52 AM,18.0,14.0,84,30.18,10.0,SSE,10.4,-,N/A,,Overcast,150,2013-01-01 06:52:00
1:52 AM,18.0,15.1,88,30.17,9.0,South,4.6,-,N/A,,Overcast,180,2013-01-01 07:52:00
2:42 AM,17.6,15.8,93,30.08,5.0,South,3.5,-,N/A,,Overcast,180,2013-01-01 08:42:00
2:48 AM,17.6,15.8,93,30.08,1.8,South,4.6,-,N/A,,Overcast,180,2013-01-01 08:48:00
2:52 AM,17.1,15.1,92,30.17,1.2,South,4.6,-,N/A,,Overcast,180,2013-01-01 08:52:00
3:31 AM,17.6,15.8,93,30.08,0.8,Calm,Calm,-,N/A,,Mist,0,2013-01-01 09:31:00
3:52 AM,17.1,15.1,92,30.19,0.5,Calm,Calm,-,N/A,Fog,Light Freezing Fog,0,2013-01-01 09:52:00
4:52 AM,15.1,12.9,91,30.18,0.2,SSW,4.6,-,N/A,Fog,Light Freezing Fog,200,2013-01-01 10:52:00
5:52 AM,12.0,10.9,95,30.17,0.2,Calm,Calm,-,N/A,Fog,Light Freezing Fog,0,2013-01-01 11:52:00
6:52 AM,12.0,8.1,84,30.17,0.2,Calm,Calm,-,N/A,Fog,Light Freezing Fog,0,2013-01-01 12:52:00
7:52 AM,10.0,7.0,87,30.17,0.8,West,5.8,-,N/A,,Mist,280,2013-01-01 13:52:00
8:52 AM,8.1,6.1,92,30.18,0.2,West,4.6,-,N/A,Fog,Light Freezing Fog,260,2013-01-01 14:52:00
9:45 AM,6.8,6.8,100,30.07,1.8,WSW,3.5,-,0.00,,Overcast,250,2013-01-01 15:45:00
9:52 AM,7.0,7.0,100,30.18,8.0,West,3.5,-,0.00,,Overcast,260,2013-01-01 15:52:00
10:12 AM,6.8,6.8,100,30.07,4.0,Calm,Calm,-,N/A,,Scattered Clouds,0,2013-01-01 16:12:00
10:52 AM,8.1,7.0,95,30.17,10.0,Calm,Calm,-,N/A,,Clear,0,2013-01-01 16:52:00
11:01 AM,6.8,5.0,92,30.06,2.5,Calm,Calm,-,N/A,,Partly Cloudy,0,2013-01-01 17:01:00
11:13 AM,6.8,3.2,85,30.05,9.0,Calm,Calm,-,N/A,,Partly Cloudy,0,2013-01-01 17:13:00
11:52 AM,10.0,6.1,84,30.14,10.0,Calm,Calm,-,N/A,,Clear,0,2013-01-01 17:52:00
12:52 PM,12.0,7.0,80,30.11,10.0,Calm,Calm,-,N/A,,Clear,0,2013-01-01 18:52:00
1:52 PM,15.1,9.0,77,30.08,10.0,South,6.9,-,N/A,,Clear,190,2013-01-01 19:52:00
2:52 PM,17.1,12.0,81,30.06,10.0,SSW,6.9,-,N/A,,Clear,200,2013-01-01 20:52:00
3:52 PM,16.0,9.0,74,30.05,10.0,SE,3.5,-,N/A,,Clear,140,2013-01-01 21:52:00
4:52 PM,16.0,10.0,77,30.04,10.0,SSW,3.5,-,N/A,,Clear,200,2013-01-01 22:52:00
5:52 PM,12.0,7.0,80,30.04,10.0,SE,4.6,-,N/A,,Clear,140,2013-01-01 23:52:00
6:52 PM,12.0,9.0,88,30.03,10.0,WNW,3.5,-,N/A,,Clear,290,2013-01-02 00:52:00
7:52 PM,12.0,9.0,88,30.03,10.0,Calm,Calm,-,N/A,,Clear,0,2013-01-02 01:52:00
8:52 PM,17.1,12.0,81,30.01,10.0,Calm,Calm,-,N/A,,Overcast,0,2013-01-02 02:52:00
9:20 PM,17.6,12.2,79,29.91,10.0,Calm,Calm,-,N/A,,Overcast,0,2013-01-02 03:20:00
9:52 PM,19.0,14.0,81,30.01,9.0,Calm,Calm,-,0.00,Snow,Light Snow,0,2013-01-02 03:52:00
10:14 PM,19.4,14.0,80,29.91,2.5,Calm,Calm,-,0.00,Snow,Light Snow,0,2013-01-02 04:14:00
10:33 PM,19.4,15.8,86,29.91,3.0,WNW,5.8,-,0.01,Snow,Light Snow,300,2013-01-02 04:33:00
10:38 PM,21.2,17.6,86,29.91,2.5,WNW,6.9,-,0.01,Snow,Light Snow,300,2013-01-02 04:38:00
10:52 PM,21.0,18.0,88,30.01,3.0,WNW,4.6,-,0.01,Snow,Light Snow,300,2013-01-02 04:52:00
11:28 PM,21.2,19.4,93,29.92,10.0,Calm,Calm,-,0.00,,Overcast,0,2013-01-02 05:28:00
11:52 PM,24.1,21.0,88,30.01,10.0,NW,5.8,-,0.00,,Overcast,310,2013-01-02 05:52:00